User: anonymous   Login
Location: Sungai Bunut
(2.6333°N, 113.7333°E)
Time: 11:45:23
(UTC+00:00)
Language:

SL-8 Rocket - Orbit

View from above orbital plane
View from above orbital plane
View from above satellite
View from above satellite

Ground track
Ground track

The orbit data is extracted from the following two-line orbital elements,

1 21088U 91006B   22019.91808535 -.00000040  00000-0 -55914-4 0  9992
2 21088  82.9411 212.8896 0021632 305.0289 164.6920 13.77189525556241
Epoch (UTC): 19 January 2022 22:02:02
Eccentricity: 0.0021632
inclination: 82.9411°
perigee height: 958 km
apogee height: 990 km
right ascension of ascending node: 212.8896°
argument of perigee: 305.0289°
revolutions per day: 13.77189525
mean anomaly at epoch: 164.6920°
orbit number at epoch: 55624

The dashed part of the orbit path shows where the satellite is in the earth's shadow,  

DLR